| time (UTC) | temp F | wind direction | speed MPH | gust MPH | rain 1hr in | rain 24hr in | rain mn in | humidity % | barometer mb |
| 20260508191701 | 70 | 315 | 16.0 | 28.0 | 0.00 | 0.00 | 0.00 | 21 | |
| 20260508190934 | 69 | 314 | 16.0 | 31.0 | 0.00 | 0.00 | 0.00 | 21 | |
| 20260508184701 | 69 | 354 | 11.0 | 19.0 | 0.00 | 0.00 | 0.00 | 23 | |
| 20260508183201 | 69 | 333 | 11.0 | 20.0 | 0.00 | 0.00 | 0.00 | 23 | |
| 20260508181701 | 69 | 319 | 14.0 | 25.0 | 0.00 | 0.00 | 0.00 | 23 | |
| 20260508180931 | 69 | 292 | 11.0 | 23.0 | 0.00 | 0.00 | 0.00 | 23 | |
| 20260508174658 | 68 | 301 | 12.0 | 20.0 | 0.00 | 0.00 | 0.00 | 23 | |
| 20260508173159 | 67 | 295 | 12.0 | 19.0 | 0.00 | 0.00 | 0.00 | 24 | |
| 20260508171659 | 66 | 261 | 11.0 | 23.0 | 0.00 | 0.00 | 0.00 | 25 | |
| 20260508170159 | 66 | 309 | 11.0 | 19.0 | 0.00 | 0.00 | 0.00 | 26 | |
| 20260508165429 | 65 | 344 | 9.0 | 18.0 | 0.00 | 0.00 | 0.00 | 26 | |
| 20260508163159 | 64 | 313 | 10.0 | 17.0 | 0.00 | 0.00 | 0.00 | 26 | |
| 20260508161659 | 63 | 308 | 9.0 | 15.0 | 0.00 | 0.00 | 0.00 | 27 | |
| 20260508160159 | 61 | 253 | 4.0 | 10.0 | 0.00 | 0.00 | 0.00 | 30 | |
| 20260508154659 | 60 | 225 | 5.0 | 10.0 | 0.00 | 0.00 | 0.00 | 33 | |
| 20260508153200 | 60 | 190 | 4.0 | 11.0 | 0.00 | 0.00 | 0.00 | 32 | |
| 20260508152430 | 60 | 230 | 3.0 | 7.0 | 0.00 | 0.00 | 0.00 | 32 | |
| 20260508150930 | 60 | 161 | 2.0 | 8.0 | 0.00 | 0.00 | 0.00 | 34 | |
| 20260508145430 | 58 | 107 | 2.0 | 5.0 | 0.00 | 0.00 | 0.00 | 36 | |
| 20260508143929 | 57 | 179 | 2.0 | 3.0 | 0.00 | 0.00 | 0.00 | 34 | |
| 20260508141659 | 56 | 179 | 2.0 | 5.0 | 0.00 | 0.00 | 0.00 | 36 | |
| 20260508140158 | 55 | 179 | 2.0 | 6.0 | 0.00 | 0.00 | 0.00 | 42 | |
| 20260508134700 | 53 | 179 | 1.0 | 3.0 | 0.00 | 0.00 | 0.00 | 41 | |
| 20260508133930 | 53 | 171 | 2.0 | 5.0 | 0.00 | 0.00 | 0.00 | 41 | |
| 20260508131704 | 53 | 155 | 1.0 | 4.0 | 0.00 | 0.00 | 0.00 | 40 | |
| 20260508131659 | 53 | 188 | 2.0 | 5.0 | 0.00 | 0.00 | 0.00 | 40 | |
| 20260508124700 | 53 | 136 | 2.0 | 3.0 | 0.00 | 0.00 | 0.00 | 40 | |
| 20260508123159 | 53 | 136 | 0.0 | 2.0 | 0.00 | 0.00 | 0.00 | 40 | |
| 20260508121658 | 53 | 136 | 3.0 | 4.0 | 0.00 | 0.00 | 0.00 | 41 | |
| 20260508120153 | 52 | 136 | 2.0 | 4.0 | 0.00 | 0.00 | 0.00 | 42 | |
| 20260508114653 | 52 | 136 | 4.0 | 7.0 | 0.00 | 0.00 | 0.00 | 42 | |
| 20260508113153 | 52 | 164 | 4.0 | 7.0 | 0.00 | 0.00 | 0.00 | 41 | |
| 20260508112419 | 53 | 167 | 2.0 | 7.0 | 0.00 | 0.00 | 0.00 | 39 | |
| 20260508110150 | 54 | 167 | 4.0 | 7.0 | 0.00 | 0.00 | 0.00 | 39 | |
| 20260508105419 | 54 | 199 | 3.0 | 8.0 | 0.00 | 0.00 | 0.00 | 38 | |
| 20260508103914 | 54 | 196 | 4.0 | 8.0 | 0.00 | 0.00 | 0.00 | 38 | |
| 20260508101639 | 54 | 186 | 3.0 | 7.0 | 0.00 | 0.00 | 0.00 | 38 | |
| 20260508100140 | 54 | 186 | 4.0 | 7.0 | 0.00 | 0.00 | 0.00 | 39 | |
| 20260508095413 | 53 | 192 | 4.0 | 8.0 | 0.00 | 0.00 | 0.00 | 41 | |
| 20260508093141 | 53 | 169 | 7.0 | 11.0 | 0.00 | 0.00 | 0.00 | 40 | |
| 20260508091635 | 53 | 171 | 9.0 | 11.0 | 0.00 | 0.00 | 0.00 | 40 | |
| 20260508090906 | 54 | 159 | 8.0 | 10.0 | 0.00 | 0.00 | 0.00 | 39 | |
| 20260508085404 | 54 | 175 | 10.0 | 12.0 | 0.00 | 0.00 | 0.00 | 39 | |
| 20260508083134 | 55 | 153 | 10.0 | 13.0 | 0.00 | 0.00 | 0.00 | 39 | |
| 20260508081634 | 55 | 159 | 8.0 | 11.0 | 0.00 | 0.00 | 0.00 | 38 | |
| 20260508080133 | 56 | 161 | 5.0 | 9.0 | 0.00 | 0.00 | 0.00 | 37 | |
| 20260508074629 | 55 | 157 | 9.0 | 11.0 | 0.00 | 0.00 | 0.00 | 37 | |
| 20260508073129 | 55 | 144 | 9.0 | 11.0 | 0.00 | 0.00 | 0.00 | 38 | |
| 20260508071635 | 55 | 153 | 8.0 | 11.0 | 0.00 | 0.00 | 0.00 | 38 | |
| 20260508071631 | 55 | 142 | 9.0 | 11.0 | 0.00 | 0.00 | 0.00 | 39 | |
| 20260508064631 | 56 | 169 | 6.0 | 10.0 | 0.00 | 0.00 | 0.00 | 37 | |
| 20260508063129 | 57 | 163 | 7.0 | 10.0 | 0.00 | 0.00 | 0.00 | 36 | |
| 20260508061628 | 57 | 159 | 6.0 | 9.0 | 0.00 | 0.00 | 0.00 | 36 | |
| 20260508060128 | 56 | 150 | 0.0 | 0.0 | 0.00 | 0.00 | 0.00 | 35 | |
| 20260508054628 | 57 | 150 | 2.0 | 9.0 | 0.00 | 0.00 | 0.00 | 36 | |
| 20260508053128 | 57 | 174 | 2.0 | 7.0 | 0.00 | 0.00 | 0.00 | 35 | |
| 20260508052355 | 57 | 171 | 2.0 | 9.0 | 0.00 | 0.00 | 0.00 | 35 | |
| 20260508050124 | 57 | 156 | 0.0 | 0.0 | 0.00 | 0.00 | 0.00 | 34 | |
| 20260508044623 | 58 | 242 | 0.0 | 0.0 | 0.00 | 0.00 | 0.00 | 34 | |
| 20260508043124 | 58 | 199 | 0.0 | 1.0 | 0.00 | 0.00 | 0.00 | 34 | |
| 20260508041623 | 59 | 274 | 3.0 | 7.0 | 0.00 | 0.00 | 0.00 | 33 | |
| 20260508040125 | 58 | 209 | 0.0 | 1.0 | 0.00 | 0.00 | 0.00 | 33 | |
| 20260508034624 | 57 | 120 | 0.0 | 0.0 | 0.00 | 0.00 | 0.00 | 34 | |
| 20260508033125 | 57 | 346 | 0.0 | 3.0 | 0.00 | 0.00 | 0.00 | 34 | |
| 20260508031625 | 58 | 326 | 1.0 | 7.0 | 0.00 | 0.00 | 0.00 | 33 | |
| 20260508030124 | 59 | 326 | 0.0 | 7.0 | 0.00 | 0.00 | 0.00 | 32 | |
| 20260508024624 | 60 | 296 | 0.0 | 1.0 | 0.00 | 0.00 | 0.00 | 32 | |
| 20260508023125 | 61 | 326 | 0.0 | 0.0 | 0.00 | 0.00 | 0.00 | 29 | |
| 20260508021623 | 62 | 326 | 1.0 | 9.0 | 0.00 | 0.00 | 0.00 | 30 | |
| 20260508020852 | 63 | 342 | 0.0 | 0.0 | 0.00 | 0.00 | 0.00 | 28 | |
| 20260508014621 | 64 | 328 | 3.0 | 13.0 | 0.00 | 0.00 | 0.00 | 29 | |
| 20260508013122 | 65 | 310 | 10.0 | 17.0 | 0.00 | 0.00 | 0.00 | 26 | |
| 20260508012355 | 67 | 296 | 9.0 | 18.0 | 0.00 | 0.00 | 0.00 | 25 | |
| 20260508010853 | 66 | 303 | 7.0 | 16.0 | 0.00 | 0.00 | 0.00 | 25 | |
| 20260508004620 | 69 | 319 | 9.0 | 20.0 | 0.00 | 0.00 | 0.00 | 24 | |
| 20260508003117 | 70 | 276 | 13.0 | 20.0 | 0.00 | 0.00 | 0.00 | 23 | |
| 20260508001617 | 70 | 349 | 9.0 | 22.0 | 0.00 | 0.00 | 0.00 | 24 | |
| 20260508000116 | 69 | 309 | 13.0 | 23.0 | 0.00 | 0.00 | 0.00 | 25 | |
| 20260507235346 | 70 | 313 | 5.0 | 15.0 | 0.00 | 0.00 | 0.00 | 23 | |
| 20260507233115 | 70 | 283 | 10.0 | 22.0 | 0.00 | 0.00 | 0.00 | 23 | |
| 20260507231609 | 70 | 316 | 8.0 | 18.0 | 0.00 | 0.00 | 0.00 | 25 | |
| 20260507230110 | 68 | 316 | 11.0 | 21.0 | 0.00 | 0.00 | 0.00 | 25 | |
| 20260507224610 | 70 | 289 | 13.0 | 27.0 | 0.00 | 0.00 | 0.00 | 23 | |
| 20260507223109 | 73 | 289 | 15.0 | 25.0 | 0.00 | 0.00 | 0.00 | 22 | |
| 20260507221610 | 71 | 256 | 17.0 | 25.0 | 0.00 | 0.00 | 0.00 | 21 | |
| 20260507220110 | 71 | 281 | 13.0 | 21.0 | 0.00 | 0.00 | 0.00 | 25 | |
| 20260507214609 | 69 | 309 | 10.0 | 21.0 | 0.00 | 0.00 | 0.00 | 26 | |
| 20260507213109 | 69 | 326 | 6.0 | 15.0 | 0.00 | 0.00 | 0.00 | 24 | |
| 20260507211609 | 71 | 330 | 12.0 | 24.0 | 0.00 | 0.00 | 0.00 | 23 | |
| 20260507210108 | 72 | 299 | 17.0 | 26.0 | 0.00 | 0.00 | 0.00 | 24 | |
| 20260507210104 | 70 | 250 | 11.0 | 23.0 | 0.00 | 0.00 | 0.00 | 25 | |
| 20260507203102 | 66 | 281 | 5.0 | 16.0 | 0.00 | 0.00 | 0.00 | 29 | |
| 20260507201602 | 66 | 277 | 5.0 | 18.0 | 0.00 | 0.00 | 0.00 | 26 | |
| 20260507194602 | 67 | 290 | 10.0 | 23.0 | 0.00 | 0.00 | 0.00 | 25 | |
| 20260507193101 | 69 | 258 | 19.0 | 27.0 | 0.00 | 0.00 | 0.00 | 25 |